CARTOSAT-2E (42767 NORAD) Tracking and Keplerian Element Data

This shows tracking and keplerian element data for the satellite.

Feedback or suggestion? Click here.




ElementValue
Catalog42767
NameCARTOSAT-2E
Epoch Orbit7754
Epoch Day319.9304103
Epoch Year2018
RAAN15.6426
Inclination97.503
Eccentricity0.0007432
Argument of Perigee260.7371
Mean Anonmoly99.3021
Mean Motion15.1917816
Decay Rate4.93E-06
L11 42767U 17036C 18319.93041030 .00000493 00000-0 26709-4 0 9999
L22 42767 97.5030 15.6426 0007432 260.7371 99.3021 15.19178160 77544

Live tracking and technical data element details for CARTOSAT-2E (NORAD 42767). CARTOSAT-2E can be tracked NOW for your location showing map with azimuth and elevation plus other details from your city location.

Track the satellite on the map from your city or location and see movement details for azimuth, elevation, latitude, longitude, range, height, and movement on the map or in text.







IsCatalogInMostPopularTable: catalog: 42767, numindb: 120
Update: records affected: 1



GetName: 42767 CARTOSAT-2E

Hit Count: updated at: Fri, 16 Nov 2018 11:56:14 GMT